When you browse on this site, cookies collect data to enhance your experience and personalize the content and advertising you see.
Visit our Privacy Policy to learn more. By continuing to use the site, you agree to this use of cookies and data.
  • In Sweden
  • List of Countries
  • For 7 days
  • Water Temperature
  • Weather Map
  • Weather Widgets
  • user-avatar
    Login

    Hourly Weather Wilkoszewice

    Today, 2 June, Tuesday

    Time Temperature Precipitation Wind Pressure Humidity
    00:00 +10°C° 0.3 mm 3 mps 745 mmHg 88%
    01:00 +10°C° 0 mm 3 mps 744 mmHg 92%
    02:00 +10°C° 0.3 mm 3 mps 744 mmHg 93%
    03:00 +9°C° 0.3 mm 3 mps 743 mmHg 93%
    04:00 +9°C° 0.3 mm 3 mps 743 mmHg 94%
    05:00 +10°C° 0 mm 4 mps 743 mmHg 90%
    06:00 +11°C° 0 mm 4 mps 743 mmHg 86%
    07:00 +12°C° 0 mm 5 mps 743 mmHg 84%
    08:00 +13°C° 0.1 mm 5 mps 743 mmHg 75%
    09:00 +14°C° 0.1 mm 5 mps 743 mmHg 67%
    10:00 +15°C° 0.1 mm 5 mps 743 mmHg 58%
    11:00 +16°C° 0 mm 5 mps 742 mmHg 57%
    12:00 +16°C° 0 mm 5 mps 742 mmHg 55%
    13:00 +17°C° 0 mm 5 mps 742 mmHg 53%
    14:00 +17°C° 0 mm 5 mps 741 mmHg 54%
    15:00 +16°C° 0 mm 5 mps 741 mmHg 55%
    16:00 +16°C° 0 mm 5 mps 740 mmHg 56%
    17:00 +15°C° 0 mm 4 mps 740 mmHg 61%
    18:00 +14°C° 0 mm 3 mps 740 mmHg 67%
    19:00 +13°C° 0 mm 3 mps 740 mmHg 73%
    20:00 +13°C° 0 mm 2 mps 740 mmHg 75%
    21:00 +12°C° 0 mm 2 mps 740 mmHg 78%
    22:00 +9°C° 0 mm 2 mps 739 mmHg 80%
    23:00 +9°C° 0 mm 2 mps 739 mmHg 83%

    Tomorrow, 3 June, Wednesday

    Time Temperature Precipitation Wind Pressure Humidity
    00:00 +8°C° 0 mm 2 mps 739 mmHg 85%
    01:00 +8°C° 0 mm 2 mps 739 mmHg 88%
    02:00 +8°C° 0 mm 2 mps 739 mmHg 90%
    03:00 +7°C° 0 mm 2 mps 738 mmHg 92%
    04:00 +7°C° 0 mm 2 mps 738 mmHg 93%
    05:00 +9°C° 0 mm 2 mps 738 mmHg 87%
    06:00 +10°C° 0 mm 2 mps 738 mmHg 81%
    07:00 +12°C° 0 mm 3 mps 738 mmHg 75%
    08:00 +13°C° 0.1 mm 3 mps 738 mmHg 71%
    09:00 +14°C° 0.1 mm 4 mps 738 mmHg 66%
    10:00 +15°C° 0.1 mm 4 mps 738 mmHg 62%
    11:00 +15°C° 0.1 mm 4 mps 737 mmHg 64%
    12:00 +14°C° 0.1 mm 4 mps 737 mmHg 66%
    13:00 +14°C° 0.1 mm 4 mps 737 mmHg 67%
    14:00 +15°C° 0.1 mm 4 mps 736 mmHg 67%
    15:00 +15°C° 0.1 mm 4 mps 736 mmHg 66%
    16:00 +17°C° 0.1 mm 4 mps 736 mmHg 65%
    17:00 +16°C° 0.2 mm 3 mps 736 mmHg 70%
    18:00 +14°C° 0.2 mm 3 mps 736 mmHg 76%
    19:00 +14°C° 0.2 mm 2 mps 736 mmHg 82%
    20:00 +13°C° 0 mm 2 mps 736 mmHg 85%
    21:00 +12°C° 0 mm 2 mps 736 mmHg 88%
    22:00 +9°C° 0 mm 2 mps 736 mmHg 92%
    23:00 +10°C° 0 mm 1 mps 736 mmHg 92%

    Day after tomorrow, 4 June, Thursday

    Time Temperature Precipitation Wind Pressure Humidity
    00:00 +10°C° 0 mm 1 mps 735 mmHg 93%
    01:00 +9°C° 0 mm 1 mps 735 mmHg 94%
    02:00 +9°C° 0 mm 1 mps 735 mmHg 94%
    03:00 +9°C° 0 mm 1 mps 735 mmHg 94%
    04:00 +9°C° 0 mm 1 mps 735 mmHg 94%
    05:00 +9°C° 0 mm 0 mps 734 mmHg 89%
    06:00 +11°C° 0 mm 0 mps 734 mmHg 84%
    07:00 +13°C° 0 mm 0 mps 734 mmHg 79%
    08:00 +15°C° 0 mm 0 mps 734 mmHg 72%
    09:00 +16°C° 0 mm 0 mps 734 mmHg 64%
    10:00 +20°C° 0 mm 1 mps 734 mmHg 57%
    11:00 +20°C° 0 mm 1 mps 733 mmHg 54%
    12:00 +20°C° 0 mm 2 mps 733 mmHg 51%
    13:00 +21°C° 0 mm 2 mps 733 mmHg 49%
    14:00 +21°C° 0 mm 2 mps 732 mmHg 49%
    15:00 +21°C° 0 mm 2 mps 732 mmHg 50%
    16:00 +21°C° 0 mm 2 mps 732 mmHg 50%
    17:00 +20°C° 0 mm 3 mps 731 mmHg 57%
    18:00 +18°C° 0 mm 3 mps 731 mmHg 63%
    19:00 +17°C° 0 mm 3 mps 731 mmHg 70%
    20:00 +16°C° 0 mm 3 mps 730 mmHg 71%
    21:00 +16°C° 0 mm 3 mps 730 mmHg 72%
    22:00 +14°C° 0 mm 3 mps 730 mmHg 73%
    23:00 +13°C° 0 mm 3 mps 730 mmHg 78%

    5 June, Friday

    Time Temperature Precipitation Wind Pressure Humidity
    00:00 +13°C° 0 mm 3 mps 729 mmHg 83%
    01:00 +13°C° 0 mm 3 mps 729 mmHg 88%
    02:00 +13°C° 0 mm 3 mps 728 mmHg 90%
    03:00 +13°C° 0 mm 3 mps 728 mmHg 91%
    04:00 +13°C° 0 mm 3 mps 727 mmHg 93%
    05:00 +14°C° 0 mm 4 mps 727 mmHg 88%
    06:00 +17°C° 0 mm 4 mps 727 mmHg 82%
    07:00 +17°C° 0 mm 5 mps 727 mmHg 77%
    08:00 +17°C° 0.1 mm 5 mps 728 mmHg 78%
    09:00 +17°C° 0.1 mm 5 mps 728 mmHg 80%
    10:00 +19°C° 0.1 mm 4 mps 729 mmHg 81%
    11:00 +19°C° 0.7 mm 5 mps 729 mmHg 82%
    12:00 +19°C° 0.7 mm 5 mps 729 mmHg 82%
    13:00 +19°C° 0.7 mm 6 mps 730 mmHg 83%
    14:00 +16°C° 0.2 mm 6 mps 730 mmHg 84%
    15:00 +15°C° 0.2 mm 5 mps 731 mmHg 86%
    16:00 +13°C° 0.2 mm 5 mps 731 mmHg 88%
    17:00 +13°C° 0.3 mm 5 mps 732 mmHg 89%
    18:00 +12°C° 0.3 mm 4 mps 733 mmHg 90%
    19:00 +11°C° 0.3 mm 4 mps 733 mmHg 92%
    20:00 +11°C° 0 mm 3 mps 734 mmHg 92%
    21:00 +10°C° 0 mm 3 mps 734 mmHg 93%
    22:00 +10°C° 0 mm 3 mps 735 mmHg 93%
    23:00 +10°C° 0 mm 3 mps 735 mmHg 94%

    6 June, Saturday

    Time Temperature Precipitation Wind Pressure Humidity
    00:00 +9°C° 0 mm 3 mps 736 mmHg 95%
    01:00 +9°C° 0 mm 3 mps 736 mmHg 96%
    02:00 +9°C° 0 mm 3 mps 736 mmHg 95%
    03:00 +9°C° 0 mm 3 mps 736 mmHg 95%
    04:00 +8°C° 0 mm 4 mps 737 mmHg 94%
    05:00 +10°C° 0 mm 4 mps 737 mmHg 88%
    06:00 +12°C° 0 mm 5 mps 737 mmHg 82%
    07:00 +14°C° 0 mm 5 mps 737 mmHg 75%
    08:00 +16°C° 0 mm 5 mps 737 mmHg 69%
    09:00 +19°C° 0 mm 6 mps 738 mmHg 62%
    10:00 +20°C° 0 mm 6 mps 738 mmHg 55%
    11:00 +21°C° 0 mm 6 mps 738 mmHg 54%
    12:00 +22°C° 0 mm 7 mps 738 mmHg 54%
    13:00 +23°C° 0 mm 7 mps 738 mmHg 53%
    14:00 +23°C° 0.1 mm 6 mps 738 mmHg 55%
    15:00 +22°C° 0.1 mm 6 mps 738 mmHg 57%
    16:00 +22°C° 0.1 mm 5 mps 738 mmHg 59%
    17:00 +21°C° 0 mm 4 mps 738 mmHg 64%
    18:00 +20°C° 0 mm 3 mps 738 mmHg 70%
    19:00 +19°C° 0 mm 2 mps 739 mmHg 76%
    20:00 +18°C° 0 mm 2 mps 739 mmHg 78%
    21:00 +17°C° 0 mm 2 mps 740 mmHg 80%
    22:00 +16°C° 0 mm 2 mps 740 mmHg 82%
    23:00 +15°C° 0 mm 2 mps 740 mmHg 83%

    7 June, Sunday

    Time Temperature Precipitation Wind Pressure Humidity
    00:00 +15°C° 0 mm 2 mps 740 mmHg 84%
    01:00 +15°C° 0 mm 2 mps 740 mmHg 85%
    02:00 +15°C° 0 mm 2 mps 740 mmHg 86%
    03:00 +14°C° 0 mm 2 mps 740 mmHg 88%
    04:00 +14°C° 0 mm 2 mps 740 mmHg 89%
    05:00 +16°C° 0 mm 2 mps 740 mmHg 84%
    06:00 +18°C° 0 mm 2 mps 740 mmHg 79%
    07:00 +20°C° 0 mm 2 mps 740 mmHg 74%
    08:00 +21°C° 0.1 mm 3 mps 740 mmHg 67%
    09:00 +24°C° 0.1 mm 3 mps 740 mmHg 61%
    10:00 +25°C° 0.1 mm 4 mps 740 mmHg 54%
    11:00 +25°C° 0.3 mm 4 mps 740 mmHg 56%
    12:00 +25°C° 0.3 mm 4 mps 739 mmHg 58%
    13:00 +25°C° 0.3 mm 4 mps 739 mmHg 60%
    14:00 +25°C° 1.6 mm 4 mps 738 mmHg 65%
    15:00 +23°C° 1.6 mm 4 mps 738 mmHg 70%
    16:00 +22°C° 1.6 mm 4 mps 738 mmHg 75%
    17:00 +21°C° 0.6 mm 4 mps 738 mmHg 80%
    18:00 +21°C° 0.6 mm 3 mps 737 mmHg 84%
    19:00 +20°C° 0.6 mm 3 mps 737 mmHg 88%
    20:00 +19°C° 0.5 mm 2 mps 737 mmHg 90%
    21:00 +18°C° 0.5 mm 2 mps 737 mmHg 92%
    22:00 +17°C° 0.5 mm 2 mps 737 mmHg 94%
    23:00 +17°C° 0 mm 2 mps 737 mmHg 93%
    Show more